Current weather by "City, St" or "zip code"  
 

Current Conditions: Mount Carmel, Mount Carmel Municipal Airport, IL

Overcast


43.0 F

Last Updated on Apr 23 2021, 4:55 am CDT
Humidity: 76%
Wind Speed: N 0.0 mph
Barometer 30.14 in
Dewpoint: 35.6 F
Visibility: 10.00 mi
Precip: --
Heat Index: NA
Wind Chill: NA
Current conditions at:

Mount Carmel, Mount Carmel Municipal Airport, IL (KAJG)

Lat: 38.60928 Lon: 87.72508

Local Radar Image active severe weather and emergency alerts image image weather storm and storm spotter reports image weather observation monitoring service image
Local
Radar
Active
Alerts
Storm Reports Obs
Monitoring

Sign-up For Email & Text Message Weather Alert Notification Services



Advertise Here

Observation History for Mount Carmel, Mount Carmel Municipal Airport, IL


Time Wind
(mph)
Vis
(mi)
Weather Precip (in) Temperature (F) Relative
Humidity
Wind
Chill
(F)
Heat
Index
(F)
Pressure
Air Dwpt altimeter
(in)
sea level
(mb)
Rmks
4:55 am CDT N 0.0 10.00 Overcast -- 43.0 35.6 76% NA NA 30.14 M
3:55 am CDT N 0.0 10.00 Overcast -- 42.0 35.1 76% NA NA 30.13 M
2:55 am CDT N 0.0 10.00 Partly Cloudy -- 41.0 33.6 75% NA NA 30.14 M
1:55 am CDT N 0.0 10.00 Fair -- 40.0 32.9 76% NA NA 30.14 M
12:55 am CDT N 0.0 10.00 Fair -- 38.0 32.0 78% NA NA 30.15 M
11:55 pm CDT N 0.0 10.00 Fair -- 38.0 29.5 71% NA NA 30.16 M
10:55 pm CDT N 0.0 10.00 Fair -- 38.0 29.5 70% NA NA 30.16 M
9:55 pm CDT N 0.0 10.00 Fair -- 43.0 29.1 58% NA NA 30.16 M
8:55 pm CDT N 0.0 10.00 Fair -- 43.0 28.9 57% NA NA 30.15 M
7:55 pm CDT N 0.0 10.00 Fair -- 51.0 23.7 35% NA NA 30.14 M
6:55 pm CDT W 4.6 10.00 Fair -- 54.0 19.8 26% 53 NA 30.14 M
5:55 pm CDT W 3.5 10.00 Fair -- 55.0 19.0 25% NA NA 30.15 M
4:55 pm CDT W 4.6 10.00 Fair -- 55.0 20.1 26% 54 NA 30.15 M
3:55 pm CDT SW 5.8 10.00 Fair -- 54.0 20.1 27% 53 NA 30.16 M
2:55 pm CDT NW 6.9 10.00 Fair -- 54.0 21.0 28% 52 NA 30.19 M
1:55 pm CDT NW 5.8 10.00 Fair -- 53.0 18.5 26% 51 NA 30.21 M
12:55 pm CDT W 9.2 10.00 Fair -- 52.0 18.3 27% 49 NA 30.22 M
11:55 am CDT N 13.8 G 17.3 10.00 Fair -- 50.0 16.9 26% 45 NA 30.23 M
10:55 am CDT W 9.2 G 17.3 10.00 Fair -- 49.0 16.9 27% 45 NA 30.25 M
9:55 am CDT NW 8.1 10.00 Fair -- 47.0 22.5 38% 43 NA 30.24 M
8:55 am CDT NW 6.9 10.00 Fair -- 45.0 27.3 51% 41 NA 30.22 M
7:55 am CDT NW 5.8 10.00 Fair -- 40.0 33.4 77% 36 NA 30.21 M
6:55 am CDT W 3.5 10.00 Fair -- 34.0 31.1 90% NA NA 30.19 M
5:55 am CDT N 0.0 10.00 Mostly Cloudy -- 35.0 31.6 87% NA NA 30.16 M

Regional Weather Observation


Mount Carmel, Mount Carmel Municipal Airport, IL (KAJG)

Overcast
43.0 F

Olney-Noble Airport, IL (KOLY)

Overcast
43.0 F

Flora Municipal Airport, IL (KFOA)

Overcast
43.0 F

Robinson Municipal Airport, IL (KRSV)

Partly Cloudy
37.0 F

Daviess County Airport, IN (KDCY)

Overcast
41.0 F

Fairfield, Fairfield Municipal Airport, IL (KFWC)

Overcast
44.0 F

Advertise Here


Advertise Here